This is the latest recevied weather packets stored in our database for station/object IN3XSV-13. If no packets are shown the sender has not sent any weather packets the latest 10 day(s).
| Time | Temp. | Humidity | Pressure | Rain* | Wind** | Luminosity | Snow |
|---|---|---|---|---|---|---|---|
| 1777872532 | 15.56° C | 62% | 9957.2 hPa | 0 mm | - | - | - |
| 1777872232 | 16.67° C | 61% | 9957.2 hPa | 0 mm | - | - | - |
| 1777871932 | 17.22° C | 61% | 9957.1 hPa | 0 mm | - | - | - |
| 1777871632 | 16.11° C | 64% | 9957.2 hPa | 0 mm | - | - | - |
| 1777871332 | 14.44° C | 66% | 9957.1 hPa | 0 mm | - | - | - |
| 1777871032 | 13.89° C | 67% | 9957 hPa | 0 mm | - | - | - |
| 1777870732 | 14.44° C | 67% | 9957 hPa | 0 mm | - | - | - |
| 1777870432 | 13.89° C | 69% | 9956.9 hPa | 0 mm | - | - | - |
| 1777870132 | 12.78° C | 71% | 9956.9 hPa | 0 mm | - | - | - |
| 1777869832 | 11.67° C | 72% | 9956.8 hPa | 0 mm | - | - | - |
| 1777869532 | 10.56° C | 73% | 9956.9 hPa | 0 mm | - | - | - |
| 1777869232 | 10° C | 74% | 9956.7 hPa | 0 mm | - | - | - |
| 1777868932 | 10° C | 74% | 9956.7 hPa | 0 mm | - | - | - |
| 1777868632 | 9.44° C | 74% | 9956.7 hPa | 0 mm | - | - | - |
| 1777868332 | 9.44° C | 74% | 9956.7 hPa | 0 mm | - | - | - |
| 1777868032 | 9.44° C | 74% | 9956.8 hPa | 0 mm | - | - | - |
| 1777867732 | 9.44° C | 74% | 9956.7 hPa | 0 mm | - | - | - |
| 1777867432 | 9.44° C | 74% | 9956.6 hPa | 0 mm | - | - | - |
| 1777867132 | 9.44° C | 74% | 9956.7 hPa | 0 mm | - | - | - |
| 1777866832 | 9.44° C | 73% | 9956.6 hPa | 0 mm | - | - | - |
| 1777866532 | 10° C | 73% | 9956.6 hPa | 0 mm | - | - | - |
| 1777866232 | 10° C | 73% | 9956.6 hPa | 0 mm | - | - | - |
| 1777865932 | 10° C | 73% | 9956.5 hPa | 0 mm | - | - | - |
| 1777865632 | 10° C | 72% | 9956.6 hPa | 0 mm | - | - | - |
| 1777865332 | 10° C | 72% | 9956.4 hPa | 0 mm | - | - | - |
* Rain latest hour (hover to see other rain measurements)
** Current wind speed in m/s (hover to see current wind gust speed)